Year,Month,Day,Hour,Minute,Value (Times are PST for temperature in C)
2016,06,20,00,00,11.90
2016,06,20,00,01,11.90
2016,06,20,00,02,11.90
2016,06,20,00,03,11.90
2016,06,20,00,04,11.90
2016,06,20,00,05,11.90
2016,06,20,00,06,11.90
2016,06,20,00,07,11.90
2016,06,20,00,08,11.80
2016,06,20,00,09,11.80
2016,06,20,00,10,11.80
2016,06,20,00,11,11.80
2016,06,20,00,12,11.80
2016,06,20,00,13,11.70
2016,06,20,00,14,11.70
2016,06,20,00,15,11.70
2016,06,20,00,16,11.70
2016,06,20,00,17,11.70
2016,06,20,00,18,11.70
2016,06,20,00,19,11.70
2016,06,20,00,20,11.70
2016,06,20,00,21,11.70
2016,06,20,00,22,11.70
2016,06,20,00,23,11.70
2016,06,20,00,24,11.70
2016,06,20,00,25,11.70
2016,06,20,00,26,11.70
2016,06,20,00,27,11.70
2016,06,20,00,28,11.70
2016,06,20,00,29,11.60
2016,06,20,00,30,11.60
2016,06,20,00,31,11.60
2016,06,20,00,32,11.60
2016,06,20,00,33,11.50
2016,06,20,00,34,11.50
2016,06,20,00,35,11.40
2016,06,20,00,36,11.40
2016,06,20,00,37,11.40
2016,06,20,00,38,11.40
2016,06,20,00,39,11.40
2016,06,20,00,40,11.40
2016,06,20,00,41,11.40
2016,06,20,00,42,11.40
2016,06,20,00,43,11.40
2016,06,20,00,44,11.30
2016,06,20,00,45,11.30
2016,06,20,00,46,11.30
2016,06,20,00,47,11.30
2016,06,20,00,48,11.30
2016,06,20,00,49,11.30
2016,06,20,00,50,11.30
2016,06,20,00,51,11.30
2016,06,20,00,52,11.30
2016,06,20,00,53,11.30
2016,06,20,00,54,11.30
2016,06,20,00,55,11.30
2016,06,20,00,56,11.30
2016,06,20,00,57,11.30
2016,06,20,00,58,11.30
2016,06,20,00,59,11.30
2016,06,20,01,00,11.30
2016,06,20,01,01,11.30
2016,06,20,01,02,11.30
2016,06,20,01,03,11.30
2016,06,20,01,04,11.30
2016,06,20,01,05,11.30
2016,06,20,01,06,11.30
2016,06,20,01,07,11.30
2016,06,20,01,08,11.30
2016,06,20,01,09,11.20
2016,06,20,01,10,11.20
2016,06,20,01,11,11.20
2016,06,20,01,12,11.20
2016,06,20,01,13,11.20
2016,06,20,01,14,11.20
2016,06,20,01,15,11.20
2016,06,20,01,16,11.10
2016,06,20,01,17,11.10
2016,06,20,01,18,11.10
2016,06,20,01,19,11.10
2016,06,20,01,20,11.10
2016,06,20,01,21,11.00
2016,06,20,01,22,11.00
2016,06,20,01,23,11.00
2016,06,20,01,24,11.00
2016,06,20,01,25,11.00
2016,06,20,01,26,10.90
2016,06,20,01,27,10.90
2016,06,20,01,28,10.90
2016,06,20,01,29,10.90
2016,06,20,01,30,10.90
2016,06,20,01,31,11.00
2016,06,20,01,32,11.00
2016,06,20,01,33,11.00
2016,06,20,01,34,11.00
2016,06,20,01,35,11.10
2016,06,20,01,36,11.10
2016,06,20,01,37,11.10
2016,06,20,01,38,11.10
2016,06,20,01,39,11.10
2016,06,20,01,40,11.10
2016,06,20,01,41,11.10
2016,06,20,01,42,11.20
2016,06,20,01,43,11.20
2016,06,20,01,44,11.20
2016,06,20,01,45,11.20
2016,06,20,01,46,11.20
2016,06,20,01,47,11.20
2016,06,20,01,48,11.20
2016,06,20,01,49,11.20
2016,06,20,01,50,11.20
2016,06,20,01,51,11.30
2016,06,20,01,52,11.30
2016,06,20,01,53,11.30
2016,06,20,01,54,11.40
2016,06,20,01,55,11.40
2016,06,20,01,56,11.50
2016,06,20,01,57,11.50
2016,06,20,01,58,11.50
2016,06,20,01,59,11.50
2016,06,20,02,00,11.50
2016,06,20,02,01,11.50
2016,06,20,02,02,11.50
2016,06,20,02,03,11.50
2016,06,20,02,04,11.50
2016,06,20,02,05,11.50
2016,06,20,02,06,11.60
2016,06,20,02,07,11.60
2016,06,20,02,08,11.60
2016,06,20,02,09,11.60
2016,06,20,02,10,11.60
2016,06,20,02,11,11.60
2016,06,20,02,12,11.60
2016,06,20,02,13,11.60
2016,06,20,02,14,11.60
2016,06,20,02,15,11.50
2016,06,20,02,16,11.60
2016,06,20,02,17,11.50
2016,06,20,02,18,11.50
2016,06,20,02,19,11.50
2016,06,20,02,20,11.50
2016,06,20,02,21,11.50
2016,06,20,02,22,11.50
2016,06,20,02,23,11.50
2016,06,20,02,24,11.50
2016,06,20,02,25,11.50
2016,06,20,02,26,11.40
2016,06,20,02,27,11.40
2016,06,20,02,28,11.40
2016,06,20,02,29,11.40
2016,06,20,02,30,11.40
2016,06,20,02,31,11.30
2016,06,20,02,32,11.30
2016,06,20,02,33,11.30
2016,06,20,02,34,11.30
2016,06,20,02,35,11.30
2016,06,20,02,36,11.40
2016,06,20,02,37,11.40
2016,06,20,02,38,11.40
2016,06,20,02,39,11.50
2016,06,20,02,40,11.50
2016,06,20,02,41,11.50
2016,06,20,02,42,11.60
2016,06,20,02,43,11.60
2016,06,20,02,44,11.60
2016,06,20,02,45,11.60
2016,06,20,02,46,11.60
2016,06,20,02,47,11.60
2016,06,20,02,48,11.60
2016,06,20,02,49,11.60
2016,06,20,02,50,11.50
2016,06,20,02,51,11.50
2016,06,20,02,52,11.50
2016,06,20,02,53,11.50
2016,06,20,02,54,11.50
2016,06,20,02,55,11.50
2016,06,20,02,56,11.50
2016,06,20,02,57,11.50
2016,06,20,02,58,11.50
2016,06,20,02,59,11.50
2016,06,20,03,00,11.50
2016,06,20,03,01,11.50
2016,06,20,03,02,11.40
2016,06,20,03,03,11.40
2016,06,20,03,04,11.40
2016,06,20,03,05,11.40
2016,06,20,03,06,11.40
2016,06,20,03,07,11.40
2016,06,20,03,08,11.40
2016,06,20,03,09,11.40
2016,06,20,03,10,11.40
2016,06,20,03,11,11.30
2016,06,20,03,12,11.30
2016,06,20,03,13,11.30
2016,06,20,03,14,11.30
2016,06,20,03,15,11.30
2016,06,20,03,16,11.30
2016,06,20,03,17,11.30
2016,06,20,03,18,11.30
2016,06,20,03,19,11.30
2016,06,20,03,20,11.30
2016,06,20,03,21,11.30
2016,06,20,03,22,11.30
2016,06,20,03,23,11.30
2016,06,20,03,24,11.30
2016,06,20,03,25,11.30
2016,06,20,03,26,11.30
2016,06,20,03,27,11.30
2016,06,20,03,28,11.30
2016,06,20,03,29,11.30
2016,06,20,03,30,11.30
2016,06,20,03,31,11.30
2016,06,20,03,32,11.30
2016,06,20,03,33,11.30
2016,06,20,03,34,11.30
2016,06,20,03,35,11.30
2016,06,20,03,36,11.20
2016,06,20,03,37,11.20
2016,06,20,03,38,11.20
2016,06,20,03,39,11.20
2016,06,20,03,40,11.20
2016,06,20,03,41,11.20
2016,06,20,03,42,11.20
2016,06,20,03,43,11.20
2016,06,20,03,44,11.20
2016,06,20,03,45,11.20
2016,06,20,03,46,11.20
2016,06,20,03,47,11.20
2016,06,20,03,48,11.20
2016,06,20,03,49,11.20
2016,06,20,03,50,11.20
2016,06,20,03,51,11.20
2016,06,20,03,52,11.20
2016,06,20,03,53,11.20
2016,06,20,03,54,11.20
2016,06,20,03,55,11.20
2016,06,20,03,56,11.20
2016,06,20,03,57,11.20
2016,06,20,03,58,11.10
2016,06,20,03,59,11.10
2016,06,20,04,00,11.10
2016,06,20,04,01,11.10
2016,06,20,04,02,11.10
2016,06,20,04,03,11.10
2016,06,20,04,04,11.10
2016,06,20,04,05,11.10
2016,06,20,04,06,11.10
2016,06,20,04,07,11.10
2016,06,20,04,08,11.10
2016,06,20,04,09,11.10
2016,06,20,04,10,11.10
2016,06,20,04,11,11.10
2016,06,20,04,12,11.10
2016,06,20,04,13,11.10
2016,06,20,04,14,11.10
2016,06,20,04,15,11.20
2016,06,20,04,16,11.20
2016,06,20,04,17,11.20
2016,06,20,04,18,11.20
2016,06,20,04,19,11.20
2016,06,20,04,20,11.20
2016,06,20,04,21,11.20
2016,06,20,04,22,11.20
2016,06,20,04,23,11.20
2016,06,20,04,24,11.30
2016,06,20,04,25,11.30
2016,06,20,04,26,11.30
2016,06,20,04,27,11.30
2016,06,20,04,28,11.30
2016,06,20,04,29,11.30
2016,06,20,04,30,11.30
2016,06,20,04,31,11.30
2016,06,20,04,32,11.30
2016,06,20,04,33,11.20
2016,06,20,04,34,11.20
2016,06,20,04,35,11.20
2016,06,20,04,36,11.20
2016,06,20,04,37,11.20
2016,06,20,04,38,11.20
2016,06,20,04,39,11.10
2016,06,20,04,40,11.10
2016,06,20,04,41,11.10
2016,06,20,04,42,11.10
2016,06,20,04,43,11.10
2016,06,20,04,44,11.10
2016,06,20,04,45,11.10
2016,06,20,04,46,11.00
2016,06,20,04,47,11.00
2016,06,20,04,48,11.00
2016,06,20,04,49,11.00
2016,06,20,04,50,11.00
2016,06,20,04,51,11.00
2016,06,20,04,52,11.00
2016,06,20,04,53,11.00
2016,06,20,04,54,11.00
2016,06,20,04,55,10.90
2016,06,20,04,56,10.90
2016,06,20,04,57,10.90
2016,06,20,04,58,10.90
2016,06,20,04,59,10.90
2016,06,20,05,00,10.90
2016,06,20,05,01,10.90
2016,06,20,05,02,10.90
2016,06,20,05,03,10.90
2016,06,20,05,04,10.90
2016,06,20,05,05,10.90
2016,06,20,05,06,10.90
2016,06,20,05,07,10.90
2016,06,20,05,08,10.90
2016,06,20,05,09,10.90
2016,06,20,05,10,10.90
2016,06,20,05,11,10.90
2016,06,20,05,12,10.90
2016,06,20,05,13,10.90
2016,06,20,05,14,10.90
2016,06,20,05,15,10.80
2016,06,20,05,16,10.80
2016,06,20,05,17,10.80
2016,06,20,05,18,10.80
2016,06,20,05,19,10.80
2016,06,20,05,20,10.80
2016,06,20,05,21,10.90
2016,06,20,05,22,10.80
2016,06,20,05,23,10.80
2016,06,20,05,24,10.80
2016,06,20,05,25,10.80
2016,06,20,05,26,10.80
2016,06,20,05,27,10.80
2016,06,20,05,28,10.80
2016,06,20,05,29,10.80
2016,06,20,05,30,10.80
2016,06,20,05,31,10.80
2016,06,20,05,32,10.80
2016,06,20,05,33,10.90
2016,06,20,05,34,10.90
2016,06,20,05,35,10.90
2016,06,20,05,36,10.90
2016,06,20,05,37,10.90
2016,06,20,05,38,10.90
2016,06,20,05,39,10.90
2016,06,20,05,40,10.90
2016,06,20,05,41,10.90
2016,06,20,05,42,10.90
2016,06,20,05,43,10.90
2016,06,20,05,44,11.00
2016,06,20,05,45,11.00
2016,06,20,05,46,11.00
2016,06,20,05,47,11.00
2016,06,20,05,48,11.00
2016,06,20,05,49,11.00
2016,06,20,05,50,11.10
2016,06,20,05,51,11.10
2016,06,20,05,52,11.10
2016,06,20,05,53,11.10
2016,06,20,05,54,11.10
2016,06,20,05,55,11.10
2016,06,20,05,56,11.10
2016,06,20,05,57,11.10
2016,06,20,05,58,11.10
2016,06,20,05,59,11.10
2016,06,20,06,00,11.10
2016,06,20,06,01,11.10
2016,06,20,06,02,11.10
2016,06,20,06,03,11.20
2016,06,20,06,04,11.20
2016,06,20,06,05,11.20
2016,06,20,06,06,11.20
2016,06,20,06,07,11.20
2016,06,20,06,08,11.20
2016,06,20,06,09,11.20
2016,06,20,06,10,11.20
2016,06,20,06,11,11.30
2016,06,20,06,12,11.30
2016,06,20,06,13,11.30
2016,06,20,06,14,11.30
2016,06,20,06,15,11.40
2016,06,20,06,16,11.40
2016,06,20,06,17,11.40
2016,06,20,06,18,11.40
2016,06,20,06,19,11.50
2016,06,20,06,20,11.50
2016,06,20,06,21,11.50
2016,06,20,06,22,11.60
2016,06,20,06,23,11.60
2016,06,20,06,24,11.60
2016,06,20,06,25,11.60
2016,06,20,06,26,11.60
2016,06,20,06,27,11.70
2016,06,20,06,28,11.70
2016,06,20,06,29,11.70
2016,06,20,06,30,11.70
2016,06,20,06,31,11.80
2016,06,20,06,32,11.80
2016,06,20,06,33,11.80
2016,06,20,06,34,11.80
2016,06,20,06,35,11.80
2016,06,20,06,36,11.90
2016,06,20,06,37,11.90
2016,06,20,06,38,11.90
2016,06,20,06,39,11.90
2016,06,20,06,40,12.00
2016,06,20,06,41,12.00
2016,06,20,06,42,12.00
2016,06,20,06,43,12.00
2016,06,20,06,44,12.10
2016,06,20,06,45,12.10
2016,06,20,06,46,12.10
2016,06,20,06,47,12.10
2016,06,20,06,48,12.10
2016,06,20,06,49,12.20
2016,06,20,06,50,12.20
2016,06,20,06,51,12.20
2016,06,20,06,52,12.20
2016,06,20,06,53,12.20
2016,06,20,06,54,12.20
2016,06,20,06,55,12.20
2016,06,20,06,56,12.20
2016,06,20,06,57,12.20
2016,06,20,06,58,12.20
2016,06,20,06,59,12.20
2016,06,20,07,00,12.20
2016,06,20,07,01,12.30
2016,06,20,07,02,12.30
2016,06,20,07,03,12.30
2016,06,20,07,04,12.30
2016,06,20,07,05,12.30
2016,06,20,07,06,12.30
2016,06,20,07,07,12.30
2016,06,20,07,08,12.30
2016,06,20,07,09,12.30
2016,06,20,07,10,12.30
2016,06,20,07,11,12.30
2016,06,20,07,12,12.30
2016,06,20,07,13,12.30
2016,06,20,07,14,12.30
2016,06,20,07,15,12.30
2016,06,20,07,16,12.30
2016,06,20,07,17,12.30
2016,06,20,07,18,12.30
2016,06,20,07,19,12.40
2016,06,20,07,20,12.30
2016,06,20,07,21,12.30
2016,06,20,07,22,12.30
2016,06,20,07,23,12.40
2016,06,20,07,24,12.40
2016,06,20,07,25,12.40
2016,06,20,07,26,12.40
2016,06,20,07,27,12.40
2016,06,20,07,28,12.50
2016,06,20,07,29,12.50
2016,06,20,07,30,12.50
2016,06,20,07,31,12.50
2016,06,20,07,32,12.50
2016,06,20,07,33,12.60
2016,06,20,07,34,12.60
2016,06,20,07,35,12.60
2016,06,20,07,36,12.60
2016,06,20,07,37,12.60
2016,06,20,07,38,12.70
2016,06,20,07,39,12.70
2016,06,20,07,40,12.70
2016,06,20,07,41,12.70
2016,06,20,07,42,12.70
2016,06,20,07,43,12.70
2016,06,20,07,44,12.80
2016,06,20,07,45,12.80
2016,06,20,07,46,12.80
2016,06,20,07,47,12.80
2016,06,20,07,48,12.80
2016,06,20,07,49,12.80
2016,06,20,07,50,12.90
2016,06,20,07,51,12.90
2016,06,20,07,52,12.90
2016,06,20,07,53,13.00
2016,06,20,07,54,13.00
2016,06,20,07,55,13.00
2016,06,20,07,56,13.10
2016,06,20,07,57,13.10
2016,06,20,07,58,13.10
2016,06,20,07,59,13.10
2016,06,20,08,00,13.10
2016,06,20,08,01,13.20
2016,06,20,08,02,13.20
2016,06,20,08,03,13.20
2016,06,20,08,04,13.20
2016,06,20,08,05,13.20
2016,06,20,08,06,13.30
2016,06,20,08,07,13.30
2016,06,20,08,08,13.30
2016,06,20,08,09,13.40
2016,06,20,08,10,13.40
2016,06,20,08,11,13.50
2016,06,20,08,12,13.50
2016,06,20,08,13,13.50
2016,06,20,08,14,13.60
2016,06,20,08,15,13.60
2016,06,20,08,16,13.60
2016,06,20,08,17,13.60
2016,06,20,08,18,13.70
2016,06,20,08,19,13.70
2016,06,20,08,20,13.70
2016,06,20,08,21,13.80
2016,06,20,08,22,13.80
2016,06,20,08,23,13.90
2016,06,20,08,24,13.90
2016,06,20,08,25,13.90
2016,06,20,08,26,14.00
2016,06,20,08,27,14.10
2016,06,20,08,28,14.10
2016,06,20,08,29,14.20
2016,06,20,08,30,14.20
2016,06,20,08,31,14.20
2016,06,20,08,32,14.20
2016,06,20,08,33,14.30
2016,06,20,08,34,14.30
2016,06,20,08,35,14.30
2016,06,20,08,36,14.30
2016,06,20,08,37,14.30
2016,06,20,08,38,14.40
2016,06,20,08,39,14.40
2016,06,20,08,40,14.40
2016,06,20,08,41,14.40
2016,06,20,08,42,14.50
2016,06,20,08,43,14.60
2016,06,20,08,44,14.60
2016,06,20,08,45,14.70
2016,06,20,08,46,14.70
2016,06,20,08,47,14.80
2016,06,20,08,48,14.80
2016,06,20,08,49,14.80
2016,06,20,08,50,14.90
2016,06,20,08,51,14.90
2016,06,20,08,52,14.90
2016,06,20,08,53,15.00
2016,06,20,08,54,15.00
2016,06,20,08,55,15.00
2016,06,20,08,56,15.10
2016,06,20,08,57,15.10
2016,06,20,08,58,15.10
2016,06,20,08,59,15.10
2016,06,20,09,00,15.20
2016,06,20,09,01,15.30
2016,06,20,09,02,15.30
2016,06,20,09,03,15.30
2016,06,20,09,04,15.40
2016,06,20,09,05,15.40
2016,06,20,09,06,15.40
2016,06,20,09,07,15.40
2016,06,20,09,08,15.40
2016,06,20,09,09,15.40
2016,06,20,09,10,15.40
2016,06,20,09,11,15.50
2016,06,20,09,12,15.50
2016,06,20,09,13,15.50
2016,06,20,09,14,15.50
2016,06,20,09,15,15.50
2016,06,20,09,16,15.60
2016,06,20,09,17,15.60
2016,06,20,09,18,15.50
2016,06,20,09,19,15.50
2016,06,20,09,20,15.50
2016,06,20,09,21,15.60
2016,06,20,09,22,15.60
2016,06,20,09,23,15.60
2016,06,20,09,24,15.60
2016,06,20,09,25,15.60
2016,06,20,09,26,15.60
2016,06,20,09,27,15.60
2016,06,20,09,28,15.70
2016,06,20,09,29,15.70
2016,06,20,09,30,15.70
2016,06,20,09,31,15.80
2016,06,20,09,32,15.80
2016,06,20,09,33,15.80
2016,06,20,09,34,15.80
2016,06,20,09,35,15.80
2016,06,20,09,36,15.80
2016,06,20,09,37,15.90
2016,06,20,09,38,15.90
2016,06,20,09,39,15.90
2016,06,20,09,40,16.00
2016,06,20,09,41,16.00
2016,06,20,09,42,16.00
2016,06,20,09,43,16.00
2016,06,20,09,44,16.00
2016,06,20,09,45,16.00
2016,06,20,09,46,16.00
2016,06,20,09,47,16.10
2016,06,20,09,48,16.10
2016,06,20,09,49,16.10
2016,06,20,09,50,16.20
2016,06,20,09,51,16.30
2016,06,20,09,52,16.30
2016,06,20,09,53,16.40
2016,06,20,09,54,16.40
2016,06,20,09,55,16.50
2016,06,20,09,56,16.60
2016,06,20,09,57,16.60
2016,06,20,09,58,16.70
2016,06,20,09,59,16.80
2016,06,20,10,00,16.80
2016,06,20,10,01,16.80
2016,06,20,10,02,16.90
2016,06,20,10,03,16.90
2016,06,20,10,04,16.90
2016,06,20,10,05,17.00
2016,06,20,10,06,17.00
2016,06,20,10,07,17.00
2016,06,20,10,08,17.10
2016,06,20,10,09,17.10
2016,06,20,10,10,17.20
2016,06,20,10,11,17.20
2016,06,20,10,12,17.30
2016,06,20,10,13,17.30
2016,06,20,10,14,17.40
2016,06,20,10,15,17.50
2016,06,20,10,16,17.50
2016,06,20,10,17,17.50
2016,06,20,10,18,17.60
2016,06,20,10,19,17.60
2016,06,20,10,20,17.60
2016,06,20,10,21,17.60
2016,06,20,10,22,17.60
2016,06,20,10,23,17.70
2016,06,20,10,24,17.70
2016,06,20,10,25,17.80
2016,06,20,10,26,17.80
2016,06,20,10,27,17.80
2016,06,20,10,28,17.90
2016,06,20,10,29,17.90
2016,06,20,10,30,17.90
2016,06,20,10,31,18.00
2016,06,20,10,32,18.00
2016,06,20,10,33,18.10
2016,06,20,10,34,18.10
2016,06,20,10,35,18.10
2016,06,20,10,36,18.10
2016,06,20,10,37,18.10
2016,06,20,10,38,18.10
2016,06,20,10,39,18.10
2016,06,20,10,40,18.20
2016,06,20,10,41,18.30
2016,06,20,10,42,18.40
2016,06,20,10,43,18.50
2016,06,20,10,44,18.50
2016,06,20,10,45,18.40
2016,06,20,10,46,18.40
2016,06,20,10,47,18.40
2016,06,20,10,48,18.40
2016,06,20,10,49,18.40
2016,06,20,10,50,18.40
2016,06,20,10,51,18.40
2016,06,20,10,52,18.50
2016,06,20,10,53,18.50
2016,06,20,10,54,18.50
2016,06,20,10,55,18.40
2016,06,20,10,56,18.40
2016,06,20,10,57,18.40
2016,06,20,10,58,18.40
2016,06,20,10,59,18.30
2016,06,20,11,00,18.40
2016,06,20,11,01,18.40
2016,06,20,11,02,18.40
2016,06,20,11,03,18.50
2016,06,20,11,04,18.50
2016,06,20,11,05,18.60
2016,06,20,11,06,18.60
2016,06,20,11,07,18.60
2016,06,20,11,08,18.60
2016,06,20,11,09,18.60
2016,06,20,11,10,18.70
2016,06,20,11,11,18.80
2016,06,20,11,12,18.80
2016,06,20,11,13,18.80
2016,06,20,11,14,18.90
2016,06,20,11,15,18.90
2016,06,20,11,16,18.90
2016,06,20,11,17,18.90
2016,06,20,11,18,18.90
2016,06,20,11,19,18.90
2016,06,20,11,20,18.90
2016,06,20,11,21,18.90
2016,06,20,11,22,18.90
2016,06,20,11,23,18.90
2016,06,20,11,24,18.90
2016,06,20,11,25,18.90
2016,06,20,11,26,18.90
2016,06,20,11,27,18.90
2016,06,20,11,28,18.90
2016,06,20,11,29,18.90
2016,06,20,11,30,18.90
2016,06,20,11,31,19.00
2016,06,20,11,32,19.00
2016,06,20,11,33,19.00
2016,06,20,11,34,19.10
2016,06,20,11,35,19.10
2016,06,20,11,36,19.20
2016,06,20,11,37,19.20
2016,06,20,11,38,19.20
2016,06,20,11,39,19.20
2016,06,20,11,40,19.30
2016,06,20,11,41,19.30
2016,06,20,11,42,19.30
2016,06,20,11,43,19.40
2016,06,20,11,44,19.50
2016,06,20,11,45,19.50
2016,06,20,11,46,19.50
2016,06,20,11,47,19.50
2016,06,20,11,48,19.50
2016,06,20,11,49,19.50
2016,06,20,11,50,19.50
2016,06,20,11,51,19.60
2016,06,20,11,52,19.60
2016,06,20,11,53,19.70
2016,06,20,11,54,19.80
2016,06,20,11,55,19.80
2016,06,20,11,56,19.90
2016,06,20,11,57,20.00
2016,06,20,11,58,20.00
2016,06,20,11,59,20.10
2016,06,20,12,00,20.20
2016,06,20,12,01,20.30
2016,06,20,12,02,20.40
2016,06,20,12,03,20.50
2016,06,20,12,04,20.60
2016,06,20,12,05,20.60
2016,06,20,12,06,20.60
2016,06,20,12,07,20.60
2016,06,20,12,08,20.60
2016,06,20,12,09,20.60
2016,06,20,12,10,20.60
2016,06,20,12,11,20.70
2016,06,20,12,12,20.80
2016,06,20,12,13,20.90
2016,06,20,12,14,21.00
2016,06,20,12,15,21.10
2016,06,20,12,16,21.20
2016,06,20,12,17,21.30
2016,06,20,12,18,21.40
2016,06,20,12,19,21.40
2016,06,20,12,20,21.40
2016,06,20,12,21,21.30
2016,06,20,12,22,21.30
2016,06,20,12,23,21.30
2016,06,20,12,24,21.30
2016,06,20,12,25,21.30
2016,06,20,12,26,21.30
2016,06,20,12,27,21.30
2016,06,20,12,28,21.30
2016,06,20,12,29,21.30
2016,06,20,12,30,21.30
2016,06,20,12,31,21.50
2016,06,20,12,32,21.50
2016,06,20,12,33,21.60
2016,06,20,12,34,21.70
2016,06,20,12,35,21.70
2016,06,20,12,36,21.80
2016,06,20,12,37,21.80
2016,06,20,12,38,21.80
2016,06,20,12,39,21.90
2016,06,20,12,40,21.90
2016,06,20,12,41,21.90
2016,06,20,12,42,22.00
2016,06,20,12,43,22.10
2016,06,20,12,44,22.10
2016,06,20,12,45,22.00
2016,06,20,12,46,22.00
2016,06,20,12,47,22.00
2016,06,20,12,48,22.10
2016,06,20,12,49,22.10
2016,06,20,12,50,22.10
2016,06,20,12,51,22.10
2016,06,20,12,52,22.10
2016,06,20,12,53,22.00
2016,06,20,12,54,22.00
2016,06,20,12,55,21.90
2016,06,20,12,56,21.90
2016,06,20,12,57,22.00
2016,06,20,12,58,22.10
2016,06,20,12,59,22.20
2016,06,20,13,00,22.30
2016,06,20,13,01,22.40
2016,06,20,13,02,22.40
2016,06,20,13,03,22.50
2016,06,20,13,04,22.50
2016,06,20,13,05,22.60
2016,06,20,13,06,22.60
2016,06,20,13,07,22.50
2016,06,20,13,08,22.40
2016,06,20,13,09,22.40
2016,06,20,13,10,22.30
2016,06,20,13,11,22.30
2016,06,20,13,12,22.30
2016,06,20,13,13,22.30
2016,06,20,13,14,22.30
2016,06,20,13,15,22.30
2016,06,20,13,16,22.30
2016,06,20,13,17,22.40
2016,06,20,13,18,22.40
2016,06,20,13,19,22.40
2016,06,20,13,20,22.50
2016,06,20,13,21,22.70
2016,06,20,13,22,22.80
2016,06,20,13,23,22.80
2016,06,20,13,24,22.80
2016,06,20,13,25,22.80
2016,06,20,13,26,22.90
2016,06,20,13,27,22.80
2016,06,20,13,28,22.80
2016,06,20,13,29,22.80
2016,06,20,13,30,22.70
2016,06,20,13,31,22.70
2016,06,20,13,32,22.60
2016,06,20,13,33,22.60
2016,06,20,13,34,22.60
2016,06,20,13,35,22.70
2016,06,20,13,36,22.70
2016,06,20,13,37,22.80
2016,06,20,13,38,22.80
2016,06,20,13,39,22.80
2016,06,20,13,40,22.80
2016,06,20,13,41,22.80
2016,06,20,13,42,22.80
2016,06,20,13,43,22.80
2016,06,20,13,44,22.90
2016,06,20,13,45,22.90
2016,06,20,13,46,23.00
2016,06,20,13,47,23.10
2016,06,20,13,48,23.10
2016,06,20,13,49,23.10
2016,06,20,13,50,23.10
2016,06,20,13,51,23.10
2016,06,20,13,52,23.10
2016,06,20,13,53,23.00
2016,06,20,13,54,22.90
2016,06,20,13,55,22.90
2016,06,20,13,56,23.00
2016,06,20,13,57,23.10
2016,06,20,13,58,23.20
2016,06,20,13,59,23.30
2016,06,20,14,00,23.40
2016,06,20,14,01,23.50
2016,06,20,14,02,23.60
2016,06,20,14,03,23.70
2016,06,20,14,04,23.70
2016,06,20,14,05,23.70
2016,06,20,14,06,23.60
2016,06,20,14,07,23.60
2016,06,20,14,08,23.60
2016,06,20,14,09,23.60
2016,06,20,14,10,23.60
2016,06,20,14,11,23.60
2016,06,20,14,12,23.60
2016,06,20,14,13,23.60
2016,06,20,14,14,23.60
2016,06,20,14,15,23.60
2016,06,20,14,16,23.50
2016,06,20,14,17,23.40
2016,06,20,14,18,23.30
2016,06,20,14,19,23.30
2016,06,20,14,20,23.30
2016,06,20,14,21,23.30
2016,06,20,14,22,23.30
2016,06,20,14,23,23.30
2016,06,20,14,24,23.40
2016,06,20,14,25,23.50
2016,06,20,14,26,23.50
2016,06,20,14,27,23.60
2016,06,20,14,28,23.60
2016,06,20,14,29,23.60
2016,06,20,14,30,23.60
2016,06,20,14,31,23.60
2016,06,20,14,32,23.60
2016,06,20,14,33,23.60
2016,06,20,14,34,23.60
2016,06,20,14,35,23.70
2016,06,20,14,36,23.80
2016,06,20,14,37,23.80
2016,06,20,14,38,23.90
2016,06,20,14,39,23.90
2016,06,20,14,40,24.00
2016,06,20,14,41,24.10
2016,06,20,14,42,24.10
2016,06,20,14,43,24.20
2016,06,20,14,44,24.30
2016,06,20,14,45,24.30
2016,06,20,14,46,24.30
2016,06,20,14,47,24.30
2016,06,20,14,48,24.30
2016,06,20,14,49,24.30
2016,06,20,14,50,24.30
2016,06,20,14,51,24.20
2016,06,20,14,52,24.10
2016,06,20,14,53,24.10
2016,06,20,14,54,24.20
2016,06,20,14,55,24.30
2016,06,20,14,56,24.40
2016,06,20,14,57,24.50
2016,06,20,14,58,24.50
2016,06,20,14,59,24.40
2016,06,20,15,00,24.40
2016,06,20,15,01,24.30
2016,06,20,15,02,24.30
2016,06,20,15,03,24.40
2016,06,20,15,04,24.50
2016,06,20,15,05,24.50
2016,06,20,15,06,24.60
2016,06,20,15,07,24.60
2016,06,20,15,08,24.60
2016,06,20,15,09,24.60
2016,06,20,15,10,24.50
2016,06,20,15,11,24.40
2016,06,20,15,12,24.40
2016,06,20,15,13,24.30
2016,06,20,15,14,24.30
2016,06,20,15,15,24.30
2016,06,20,15,16,24.20
2016,06,20,15,17,24.20
2016,06,20,15,18,24.20
2016,06,20,15,19,24.20
2016,06,20,15,20,24.30
2016,06,20,15,21,24.40
2016,06,20,15,22,24.50
2016,06,20,15,23,24.60
2016,06,20,15,24,24.50
2016,06,20,15,25,24.40
2016,06,20,15,26,24.30
2016,06,20,15,27,24.20
2016,06,20,15,28,24.10
2016,06,20,15,29,24.00
2016,06,20,15,30,24.00
2016,06,20,15,31,24.00
2016,06,20,15,32,24.10
2016,06,20,15,33,24.20
2016,06,20,15,34,24.20
2016,06,20,15,35,24.20
2016,06,20,15,36,24.10
2016,06,20,15,37,24.10
2016,06,20,15,38,24.10
2016,06,20,15,39,24.10
2016,06,20,15,40,24.20
2016,06,20,15,41,24.20
2016,06,20,15,42,24.20
2016,06,20,15,43,24.20
2016,06,20,15,44,24.30
2016,06,20,15,45,24.30
2016,06,20,15,46,24.40
2016,06,20,15,47,24.40
2016,06,20,15,48,24.40
2016,06,20,15,49,24.30
2016,06,20,15,50,24.30
2016,06,20,15,51,24.30
2016,06,20,15,52,24.30
2016,06,20,15,53,24.30
2016,06,20,15,54,24.50
2016,06,20,15,55,24.60
2016,06,20,15,56,24.70
2016,06,20,15,57,24.70
2016,06,20,15,58,24.70
2016,06,20,15,59,24.80
2016,06,20,16,00,24.80
2016,06,20,16,01,24.80
2016,06,20,16,02,24.80
2016,06,20,16,03,24.70
2016,06,20,16,04,24.70
2016,06,20,16,05,24.70
2016,06,20,16,06,24.80
2016,06,20,16,07,24.80
2016,06,20,16,08,24.80
2016,06,20,16,09,24.80
2016,06,20,16,10,24.80
2016,06,20,16,11,24.80
2016,06,20,16,12,24.70
2016,06,20,16,13,24.70
2016,06,20,16,14,24.60
2016,06,20,16,15,24.70
2016,06,20,16,16,24.70
2016,06,20,16,17,24.80
2016,06,20,16,18,24.90
2016,06,20,16,19,24.90
2016,06,20,16,20,24.80
2016,06,20,16,21,24.80
2016,06,20,16,22,24.80
2016,06,20,16,23,24.80
2016,06,20,16,24,24.90
2016,06,20,16,25,24.90
2016,06,20,16,26,24.90
2016,06,20,16,27,24.90
2016,06,20,16,28,25.00
2016,06,20,16,29,25.10
2016,06,20,16,30,25.10
2016,06,20,16,31,25.20
2016,06,20,16,32,25.10
2016,06,20,16,33,25.10
2016,06,20,16,34,25.10
2016,06,20,16,35,25.00
2016,06,20,16,36,24.90
2016,06,20,16,37,24.90
2016,06,20,16,38,24.90
2016,06,20,16,39,24.90
2016,06,20,16,40,24.90
2016,06,20,16,41,24.90
2016,06,20,16,42,24.90
2016,06,20,16,43,24.90
2016,06,20,16,44,25.00
2016,06,20,16,45,25.10
2016,06,20,16,46,25.10
2016,06,20,16,47,25.20
2016,06,20,16,48,25.20
2016,06,20,16,49,25.20
2016,06,20,16,50,25.20
2016,06,20,16,51,25.20
2016,06,20,16,52,25.20
2016,06,20,16,53,25.30
2016,06,20,16,54,25.20
2016,06,20,16,55,25.20
2016,06,20,16,56,25.10
2016,06,20,16,57,25.10
2016,06,20,16,58,25.10
2016,06,20,16,59,25.10
2016,06,20,17,00,25.10
2016,06,20,17,01,25.10
2016,06,20,17,02,25.10
2016,06,20,17,03,25.20
2016,06,20,17,04,25.20
2016,06,20,17,05,25.20
2016,06,20,17,06,25.20
2016,06,20,17,07,25.20
2016,06,20,17,08,25.20
2016,06,20,17,09,25.20
2016,06,20,17,10,25.20
2016,06,20,17,11,25.30
2016,06,20,17,12,25.30
2016,06,20,17,13,25.40
2016,06,20,17,14,25.40
2016,06,20,17,15,25.40
2016,06,20,17,16,25.40
2016,06,20,17,17,25.30
2016,06,20,17,18,25.30
2016,06,20,17,19,25.20